When you browse on this site, cookies collect data to enhance your experience and personalize the content and advertising you see.
Visit our Privacy Policy to learn more. By continuing to use the site, you agree to this use of cookies and data.
  • In Switzerland
  • List of Countries
  • For 7 days
  • Water Temperature
  • Weather Map
  • Weather Widgets
  • user-avatar
    Login

    Hourly Weather Krupec

    Today, 22 August, Thursday

    Time Temperature Precipitation Wind Pressure Humidity
    00:00 +20°C° 0 mm 2 mps 751 mmHg 86%
    01:00 +20°C° 0 mm 2 mps 751 mmHg 88%
    02:00 +19°C° 0 mm 2 mps 751 mmHg 90%
    03:00 +19°C° 0 mm 2 mps 751 mmHg 90%
    04:00 +19°C° 0 mm 2 mps 750 mmHg 91%
    05:00 +19°C° 0 mm 2 mps 750 mmHg 92%
    06:00 +20°C° 0 mm 2 mps 750 mmHg 86%
    07:00 +23°C° 0 mm 2 mps 751 mmHg 81%
    08:00 +25°C° 0 mm 2 mps 751 mmHg 76%
    09:00 +26°C° 0 mm 2 mps 751 mmHg 72%
    10:00 +27°C° 0 mm 2 mps 751 mmHg 68%
    11:00 +28°C° 0 mm 3 mps 750 mmHg 64%
    12:00 +27°C° 0.4 mm 3 mps 751 mmHg 69%
    13:00 +26°C° 0.4 mm 4 mps 751 mmHg 74%
    14:00 +25°C° 0.4 mm 5 mps 751 mmHg 78%
    15:00 +23°C° 0 mm 5 mps 751 mmHg 78%
    16:00 +22°C° 0 mm 5 mps 751 mmHg 79%
    17:00 +22°C° 0 mm 4 mps 751 mmHg 79%
    18:00 +20°C° 0 mm 4 mps 752 mmHg 81%
    19:00 +19°C° 0 mm 4 mps 752 mmHg 83%
    20:00 +17°C° 0 mm 4 mps 753 mmHg 85%
    21:00 +17°C° 0 mm 3 mps 753 mmHg 87%
    22:00 +16°C° 0 mm 3 mps 753 mmHg 90%
    23:00 +14°C° 0 mm 3 mps 754 mmHg 92%

    Tomorrow, 23 August, Friday

    Time Temperature Precipitation Wind Pressure Humidity
    00:00 +14°C° 0 mm 3 mps 754 mmHg 93%
    01:00 +13°C° 0 mm 3 mps 754 mmHg 93%
    02:00 +14°C° 0 mm 2 mps 755 mmHg 94%
    03:00 +14°C° 0 mm 2 mps 755 mmHg 94%
    04:00 +13°C° 0 mm 2 mps 755 mmHg 94%
    05:00 +13°C° 0 mm 2 mps 755 mmHg 94%
    06:00 +15°C° 0 mm 2 mps 755 mmHg 89%
    07:00 +16°C° 0 mm 3 mps 755 mmHg 84%
    08:00 +18°C° 0 mm 3 mps 756 mmHg 79%
    09:00 +19°C° 0 mm 3 mps 756 mmHg 73%
    10:00 +20°C° 0 mm 3 mps 755 mmHg 67%
    11:00 +21°C° 0 mm 3 mps 755 mmHg 61%
    12:00 +21°C° 0 mm 3 mps 755 mmHg 59%
    13:00 +22°C° 0 mm 3 mps 755 mmHg 57%
    14:00 +22°C° 0 mm 3 mps 755 mmHg 56%
    15:00 +22°C° 0 mm 3 mps 755 mmHg 60%
    16:00 +21°C° 0 mm 2 mps 755 mmHg 63%
    17:00 +21°C° 0 mm 2 mps 755 mmHg 67%
    18:00 +19°C° 0 mm 2 mps 755 mmHg 70%
    19:00 +18°C° 0 mm 1 mps 755 mmHg 73%
    20:00 +15°C° 0 mm 1 mps 755 mmHg 76%
    21:00 +15°C° 0 mm 1 mps 755 mmHg 78%
    22:00 +14°C° 0 mm 1 mps 755 mmHg 79%
    23:00 +14°C° 0 mm 1 mps 755 mmHg 81%

    Day after tomorrow, 24 August, Saturday

    Time Temperature Precipitation Wind Pressure Humidity
    00:00 +13°C° 0 mm 1 mps 755 mmHg 83%
    01:00 +13°C° 0 mm 1 mps 755 mmHg 84%
    02:00 +13°C° 0 mm 1 mps 756 mmHg 86%
    03:00 +13°C° 0 mm 1 mps 755 mmHg 86%
    04:00 +13°C° 0 mm 1 mps 755 mmHg 87%
    05:00 +12°C° 0 mm 1 mps 755 mmHg 88%
    06:00 +15°C° 0 mm 1 mps 755 mmHg 81%
    07:00 +18°C° 0 mm 1 mps 756 mmHg 75%
    08:00 +20°C° 0 mm 1 mps 756 mmHg 69%
    09:00 +21°C° 0 mm 1 mps 755 mmHg 64%
    10:00 +23°C° 0 mm 1 mps 755 mmHg 59%
    11:00 +24°C° 0 mm 1 mps 755 mmHg 54%
    12:00 +22°C° 0 mm 0 mps 755 mmHg 51%
    13:00 +23°C° 0 mm 0 mps 755 mmHg 49%
    14:00 +23°C° 0 mm 0 mps 754 mmHg 47%
    15:00 +23°C° 0 mm 0 mps 754 mmHg 51%
    16:00 +24°C° 0 mm 1 mps 754 mmHg 56%
    17:00 +23°C° 0 mm 1 mps 753 mmHg 60%
    18:00 +21°C° 0 mm 1 mps 753 mmHg 64%
    19:00 +19°C° 0 mm 1 mps 754 mmHg 69%
    20:00 +18°C° 0 mm 1 mps 754 mmHg 73%
    21:00 +16°C° 0 mm 1 mps 754 mmHg 74%
    22:00 +16°C° 0 mm 1 mps 754 mmHg 76%
    23:00 +15°C° 0 mm 1 mps 754 mmHg 77%

    25 August, Sunday

    Time Temperature Precipitation Wind Pressure Humidity
    00:00 +15°C° 0 mm 1 mps 753 mmHg 80%
    01:00 +14°C° 0 mm 1 mps 753 mmHg 82%
    02:00 +14°C° 0 mm 1 mps 753 mmHg 84%
    03:00 +14°C° 0 mm 1 mps 753 mmHg 86%
    04:00 +14°C° 0 mm 1 mps 753 mmHg 87%
    05:00 +13°C° 0 mm 1 mps 753 mmHg 88%
    06:00 +15°C° 0 mm 1 mps 753 mmHg 84%
    07:00 +17°C° 0 mm 2 mps 753 mmHg 79%
    08:00 +19°C° 0 mm 2 mps 753 mmHg 74%
    09:00 +20°C° 0 mm 2 mps 752 mmHg 69%
    10:00 +21°C° 0 mm 2 mps 752 mmHg 64%
    11:00 +24°C° 0 mm 2 mps 752 mmHg 59%
    12:00 +24°C° 0 mm 2 mps 752 mmHg 58%
    13:00 +24°C° 0 mm 2 mps 752 mmHg 57%
    14:00 +25°C° 0 mm 3 mps 752 mmHg 56%
    15:00 +24°C° 0.2 mm 3 mps 752 mmHg 63%
    16:00 +22°C° 0.2 mm 3 mps 752 mmHg 70%
    17:00 +21°C° 0.2 mm 3 mps 752 mmHg 76%
    18:00 +20°C° 0 mm 2 mps 752 mmHg 82%
    19:00 +18°C° 0 mm 2 mps 752 mmHg 88%
    20:00 +17°C° 0 mm 2 mps 752 mmHg 93%
    21:00 +16°C° 0 mm 2 mps 753 mmHg 94%
    22:00 +15°C° 0 mm 2 mps 753 mmHg 94%
    23:00 +15°C° 0 mm 2 mps 754 mmHg 94%

    26 August, Monday

    Time Temperature Precipitation Wind Pressure Humidity
    00:00 +14°C° 0 mm 2 mps 754 mmHg 94%
    01:00 +13°C° 0 mm 2 mps 754 mmHg 94%
    02:00 +13°C° 0 mm 2 mps 754 mmHg 94%
    03:00 +12°C° 0 mm 2 mps 755 mmHg 95%
    04:00 +12°C° 0 mm 2 mps 755 mmHg 95%
    05:00 +12°C° 0 mm 2 mps 755 mmHg 96%
    06:00 +12°C° 0 mm 3 mps 755 mmHg 92%
    07:00 +14°C° 0 mm 3 mps 756 mmHg 87%
    08:00 +16°C° 0 mm 3 mps 756 mmHg 83%
    09:00 +17°C° 0 mm 3 mps 756 mmHg 76%
    10:00 +19°C° 0 mm 3 mps 757 mmHg 69%
    11:00 +20°C° 0 mm 3 mps 757 mmHg 62%
    12:00 +20°C° 0 mm 3 mps 757 mmHg 59%
    13:00 +21°C° 0 mm 2 mps 756 mmHg 57%
    14:00 +21°C° 0 mm 2 mps 756 mmHg 54%
    15:00 +21°C° 0 mm 2 mps 756 mmHg 59%
    16:00 +20°C° 0 mm 2 mps 756 mmHg 63%
    17:00 +20°C° 0 mm 2 mps 756 mmHg 67%
    18:00 +18°C° 0 mm 2 mps 756 mmHg 73%
    19:00 +16°C° 0 mm 2 mps 756 mmHg 78%
    20:00 +14°C° 0 mm 2 mps 756 mmHg 84%
    21:00 +14°C° 0 mm 2 mps 756 mmHg 85%
    22:00 +13°C° 0 mm 2 mps 756 mmHg 87%
    23:00 +13°C° 0 mm 2 mps 757 mmHg 89%

    27 August, Tuesday

    Time Temperature Precipitation Wind Pressure Humidity
    00:00 +12°C° 0 mm 2 mps 757 mmHg 89%
    01:00 +12°C° 0 mm 1 mps 756 mmHg 90%
    02:00 +12°C° 0 mm 1 mps 756 mmHg 91%
    03:00 +12°C° 0 mm 1 mps 756 mmHg 92%
    04:00 +11°C° 0 mm 1 mps 756 mmHg 92%
    05:00 +10°C° 0 mm 2 mps 756 mmHg 92%
    06:00 +13°C° 0 mm 2 mps 756 mmHg 86%
    07:00 +15°C° 0 mm 2 mps 756 mmHg 80%
    08:00 +17°C° 0 mm 2 mps 756 mmHg 74%
    09:00 +18°C° 0 mm 2 mps 756 mmHg 69%
    10:00 +20°C° 0 mm 2 mps 756 mmHg 64%
    11:00 +21°C° 0 mm 2 mps 756 mmHg 59%
    12:00 +21°C° 0 mm 2 mps 755 mmHg 57%
    13:00 +23°C° 0 mm 2 mps 755 mmHg 55%
    14:00 +23°C° 0 mm 2 mps 754 mmHg 53%
    15:00 +23°C° 0 mm 2 mps 754 mmHg 57%
    16:00 +23°C° 0 mm 2 mps 754 mmHg 61%
    17:00 +22°C° 0 mm 1 mps 754 mmHg 66%
    18:00 +20°C° 0 mm 1 mps 753 mmHg 70%
    19:00 +18°C° 0 mm 2 mps 753 mmHg 74%
    20:00 +16°C° 0 mm 2 mps 753 mmHg 78%
    21:00 +16°C° 0 mm 2 mps 753 mmHg 80%
    22:00 +15°C° 0 mm 2 mps 754 mmHg 81%
    23:00 +15°C° 0 mm 2 mps 754 mmHg 83%
    Show more